Terminal Aerodrome Forecast
Issued by NWS

Home | Current Version | Previous Version | Graphics & Text | Print | Product List | Glossary On
Versions: 1 2 3 4 5 6 7 8 9 10 11 12 13 14 15 16 17 18 19 20 21 22 23 24 25 26 27
000
FTUS43 KLOT 281120
TAFGYY
TAF
KGYY 281120Z 2812/2912 VRB04KT P6SM BKN100
     FM281400 15006KT P6SM BKN080
     FM282000 08008KT P6SM -SHRA OVC035
     FM290200 05008KT 6SM BR SCT008 OVC012
     FM290900 04013G20KT 6SM BR OVC012=

USA.gov is the U.S. government's official web portal to all federal, state and local government web resources and services.